カタログに戻る

COSMOS 1823 DEB

運用中LEO
NORAD 18758·DEBRIS·🇷🇺 Russia

打ち上げ Feb 20, 1987 から Plesetsk Cosmodrome

Loading…

次のパス (今後24時間)

TLE

最新Source: Space-Track

元期: Sep 14, 2026, 18:19 UTC

1 18758U 87020AK  26257.76355330 -.00000008  00000-0  74013-4 0  9998
2 18758  73.6233  79.3005 0052631 223.2312 150.5844 12.38049489749297

AllMySatでCOSMOS 1823 DEBをリアルタイム追跡

Download on the App Store